KE0TRL Weather Reports


time (UTC)temp
C
wind
direction
speed
KPH
gust
KPH
rain 1hr
cm
rain 24hr
cm
rain mn
cm
humidity
%
barometer
mb
20260507091502 7 68 6.4 6.4 0.00 0.00 0.00 74 1010.8
20260507090402 7 45 8.0 8.0 0.00 0.00 0.00 73 1011.2
20260507085305 6 45 4.8 8.0 0.00 0.00 0.00 71 1011.5
20260507083102 6 68 6.4 6.4 0.00 0.00 0.00 70 1011.5
20260507081002 6 90 3.2 4.8 0.00 0.00 0.00 65 1011.9
20260507075802 6 45 3.2 3.2 0.00 0.00 0.00 65 1012.2
20260507074702 6 113 1.6 4.8 0.00 0.00 0.00 63 1012.2
20260507073602 7 45 3.2 3.2 0.00 0.00 0.00 61 1012.2
20260507072502 7 90 1.6 3.2 0.00 0.00 0.00 61 1012.2
20260507071402 7 90 3.2 3.2 0.00 0.00 0.00 60 1012.5
20260507070302 7 45 3.2 3.2 0.00 0.00 0.00 56 1012.5
20260507064002 7 23 3.2 3.2 0.00 0.00 0.00 54 1012.9
20260507062902 7 45 3.2 3.2 0.00 0.00 0.00 53 1012.9
20260507061802 7 68 4.8 4.8 0.00 0.00 0.00 51 1012.9
20260507060602 7 158 1.6 3.2 0.00 0.00 0.00 51 1013.2
20260507055502 7 135 1.6 3.2 0.00 0.00 0.00 51 1013.2
20260507054402 7 90 3.2 3.2 0.00 0.00 0.00 50 1013.2
20260507053303 7 23 0.0 1.6 0.00 0.00 0.00 49 1013.2
20260507051102 8 113 4.8 4.8 0.00 0.00 0.00 46 1013.2
20260507044702 7 180 0.0 0.0 0.00 0.00 0.00 48 1013.2
20260507043302 7 158 0.0 0.0 0.00 0.00 0.00 49 1013.2
20260507041102 7 158 0.0 0.0 0.00 0.00 0.00 45 1013.5
20260507035002 7 158 0.0 0.0 0.00 0.00 0.00 46 1013.9
20260507031602 8 158 0.0 0.0 0.00 0.00 0.00 41 1013.9
20260507030503 10 158 0.0 0.0 0.00 0.00 0.00 37 1013.9
20260507024702 9 158 0.0 0.0 0.00 0.00 0.00 39 1013.9
20260507023603 10 158 0.0 1.6 0.00 0.00 0.00 39 1013.9
20260507022502 10 45 3.2 3.2 0.00 0.00 0.00 39 1013.9
20260507021402 9 180 0.0 0.0 0.00 0.00 0.00 40 1013.5
20260507020202 10 180 0.0 0.0 0.00 0.00 0.00 39 1013.5
20260507015102 10 180 0.0 0.0 0.00 0.00 0.00 37 1013.5
20260507014002 11 180 0.0 0.0 0.00 0.00 0.00 34 1013.2
20260507012802 12 180 0.0 0.0 0.00 0.00 0.00 34 1013.5
20260507005502 13 180 0.0 0.0 0.00 0.00 0.00 30 1013.2
20260507003302 14 158 1.6 3.2 0.00 0.00 0.00 29 1013.5
20260507001002 15 113 6.4 8.0 0.00 0.00 0.00 27 1013.9
20260506235902 16 225 1.6 6.4 0.00 0.00 0.00 30 1013.9
20260506234802 16 203 6.4 6.4 0.00 0.00 0.00 29 1013.9
20260506233702 17 315 3.2 4.8 0.00 0.00 0.00 29 1013.9
20260506232602 15 270 3.2 6.4 0.00 0.00 0.00 30 1013.9
20260506231502 15 45 6.4 8.0 0.00 0.00 0.00 29 1013.9
20260506230303 16 180 4.8 11.3 0.00 0.00 0.00 27 1014.2
20260506225202 16 23 9.7 9.7 0.00 0.00 0.00 27 1014.2
20260506224102 16 45 8.0 9.7 0.00 0.00 0.00 29 1014.2
20260506223003 17 90 6.4 6.4 0.00 0.00 0.00 27 1014.2
20260506221902 16 180 6.4 8.0 0.00 0.00 0.00 29 1014.6
20260506220802 16 315 4.8 11.3 0.00 0.00 0.00 30 1014.6
20260506215702 16 180 4.8 9.7 0.00 0.00 0.00 27 1014.6
20260506214503 17 180 6.4 8.0 0.00 0.00 0.00 29 1014.9
20260506205003 16 338 6.4 9.7 0.00 0.00 0.00 29 1015.6
20260506203802 17 270 8.0 8.0 0.00 0.00 0.00 30 1015.6
20260506202702 16 225 9.7 11.3 0.00 0.00 0.00 31 1015.6
20260506201602 16 158 3.2 4.8 0.00 0.00 0.00 34 1015.6
20260506200502 15 45 11.3 11.3 0.00 0.00 0.00 32 1015.6
20260506195402 15 23 6.4 14.5 0.00 0.00 0.00 32 1015.9
20260506194302 15 180 3.2 11.3 0.00 0.00 0.00 32 1015.9
20260506193202 14 90 4.8 9.7 0.00 0.00 0.00 31 1015.9
20260506192102 15 248 6.4 12.9 0.00 0.00 0.00 35 1015.9
20260506190902 13 180 4.8 6.4 0.00 0.00 0.00 35 1016.3
20260506185802 13 0 8.0 11.3 0.00 0.00 0.00 34 1016.3
20260506184703 15 23 9.7 11.3 0.00 0.00 0.00 35 1016.3
20260506183602 13 158 9.7 9.7 0.00 0.00 0.00 34 1016.6
20260506182402 15 180 4.8 9.7 0.00 0.00 0.00 35 1016.6
20260506181302 12 68 6.4 9.7 0.00 0.00 0.00 35 1016.6
20260506175102 12 45 8.0 9.7 0.00 0.00 0.00 35 1016.9
20260506172802 13 45 9.7 9.7 0.00 0.00 0.00 37 1016.9
20260506171702 13 180 4.8 8.0 0.00 0.00 0.00 35 1017.3
20260506170602 12 270 6.4 9.7 0.00 0.00 0.00 35 1017.6
20260506165402 12 248 4.8 8.0 0.00 0.00 0.00 37 1017.3
20260506164302 11 45 6.4 8.0 0.00 0.00 0.00 37 1017.6
20260506163202 12 23 6.4 8.0 0.00 0.00 0.00 39 1017.6
20260506162102 12 68 4.8 11.3 0.00 0.00 0.00 40 1017.6
20260506161003 11 270 4.8 14.5 0.00 0.00 0.00 37 1017.3
20260506155802 11 338 6.4 9.7 0.00 0.00 0.00 43 1017.3
20260506154702 11 158 6.4 6.4 0.00 0.00 0.00 41 1017.3
20260506153603 10 90 4.8 9.7 0.00 0.00 0.00 43 1017.3
20260506151402 10 248 1.6 6.4 0.00 0.00 0.00 40 1017.3
20260506150304 10 45 4.8 8.0 0.00 0.00 0.00 44 1017.3
20260506145202 10 180 6.4 6.4 0.00 0.00 0.00 44 1017.3
20260506144102 9 45 6.4 6.4 0.00 0.00 0.00 46 1017.6
20260506143003 8 158 3.2 6.4 0.00 0.00 0.00 45 1017.3
20260506141802 8 180 1.6 6.4 0.00 0.00 0.00 48 1017.3
20260506140702 8 68 4.8 4.8 0.00 0.00 0.00 50 1017.3
20260506135602 7 248 1.6 3.2 0.00 0.00 0.00 53 1017.3
20260506134402 7 68 3.2 4.8 0.00 0.00 0.00 54 1016.9
20260506133203 6 158 1.6 3.2 0.00 0.00 0.00 58 1016.9
20260506131003 5 68 0.0 4.8 0.00 0.00 0.00 61 1016.9
20260506125802 4 68 3.2 3.2 0.00 0.00 0.00 61 1016.6
20260506123502 3 225 3.2 3.2 0.00 0.00 0.00 63 1016.6
20260506122305 3 158 1.6 3.2 0.00 0.00 0.00 65 1016.3
20260506121202 3 338 1.6 3.2 0.00 0.00 0.00 66 1016.3
20260506114702 2 45 3.2 3.2 0.00 0.00 0.00 70 1015.6
20260506112402 2 158 0.0 0.0 0.00 0.00 0.00 70 1015.2
20260506111302 2 23 0.0 0.0 0.00 0.00 0.00 69 1015.2
20260506110203 2 68 0.0 0.0 0.00 0.00 0.00 68 1015.6
20260506105102 2 68 1.6 3.2 0.00 0.00 0.00 68 1015.6
20260506103902 3 90 0.0 3.2 0.00 0.00 0.00 66 1015.6
20260506102902 3 68 3.2 3.2 0.00 0.00 0.00 63 1015.6
20260506101702 3 90 1.6 1.6 0.00 0.00 0.00 63 1015.2
20260506100603 3 113 0.0 0.0 0.00 0.00 0.00 59 1015.2
20260506095502 4 180 0.0 1.6 0.00 0.00 0.00 59 1015.2
20260506094402 4 203 1.6 3.2 0.00 0.00 0.00 56 1015.2